| Date | Time | Temp. (oF) | Dew Point (oF) | Rel. Hum. (%) | Press. (in.) | Wind Dir. | Wind Speed (mph) | Hourly Rainfall (in.) |
|
|---|---|---|---|---|---|---|---|---|---|
| 1 | 04/19 | 00:00 | 44 | 43 | 99 | 30.43 | NE | 5 | 0.00 |
| 2 | 04/18 | 23:00 | 43 | 42 | 100 | 30.43 | NNE | 4 | 0.00 |
| 3 | 04/18 | 22:00 | 43 | 42 | 100 | 30.43 | NE | 2 | 0.00 |
| 4 | 04/18 | 21:00 | 42 | 41 | 100 | 30.42 | ENE | 3 | 0.00 |
| 5 | 04/18 | 20:00 | 42 | 41 | 100 | 30.42 | NNE | 3 | 0.00 |
| 6 | 04/18 | 19:00 | 42 | 41 | 100 | 30.42 | NE | 4 | 0.00 |
| 7 | 04/18 | 18:00 | 41 | 41 | 100 | 30.41 | NE | 3 | 0.03 |
| 8 | 04/18 | 17:00 | 41 | 41 | 100 | 30.41 | NE | 3 | 0.00 |
| 9 | 04/18 | 16:00 | 40 | 40 | 100 | 30.42 | NE | 3 | 0.06 |
| 10 | 04/18 | 15:00 | 39 | 39 | 100 | 30.43 | ENE | 7 | 0.00 |
| 11 | 04/18 | 14:00 | 39 | 38 | 99 | 30.45 | E | 6 | 0.00 |
| 12 | 04/18 | 13:00 | 38 | 37 | 99 | 30.45 | NE | 10 | 0.00 |
| 13 | 04/18 | 12:00 | 37 | 36 | 98 | 30.45 | NE | 5 | 0.00 |
| 14 | 04/18 | 11:00 | 37 | 36 | 99 | 30.45 | E | 9 | 0.01 |
| 15 | 04/18 | 10:00 | 36 | 35 | 99 | 30.45 | E | 3 | 0.00 |
| 16 | 04/18 | 09:00 | 35 | 33 | 96 | 30.44 | E | 9 | 0.09 |
| 17 | 04/18 | 08:00 | 35 | 32 | 91 | 30.43 | ENE | 7 | 0.00 |
| 18 | 04/18 | 07:00 | 35 | 32 | 89 | 30.42 | NE | 8 | 0.00 |
| 19 | 04/18 | 06:00 | 35 | 30 | 85 | 30.39 | NNE | 3 | 0.00 |
| 20 | 04/18 | 05:00 | 35 | 30 | 83 | 30.38 | NW | 7 | 0.00 |
| 21 | 04/18 | 04:00 | 35 | 29 | 80 | 30.39 | ESE | 3 | 0.00 |
| 22 | 04/18 | 03:00 | 35 | 28 | 77 | 30.40 | ENE | 6 | 0.00 |
| 23 | 04/18 | 02:00 | 35 | 28 | 76 | 30.42 | ENE | 6 | 0.00 |
| 24 | 04/18 | 01:00 | 36 | 28 | 74 | 30.42 | ENE | 9 | 0.00 |